Track COSMOS 1363 now! 10-day predictions COSMOS 1363 is classified as:
1 13166U 82040G 19049.61185677 +.00000003 +00000-0 +13503-3 0 9993 2 13166 074.0104 106.7598 0018612 086.0563 067.1052 12.44120258670785